COSMOS 1716

Satellite information

Favourite Embed

Satellite Type and Status

PAYLOADIN ORBIT

Key statistics

Satellite COSMOS 1716 at a glance.

Uptime

14589

Days in orbit

Revolutions

≈ 12.5

Per day

Orbit

LEO

Low Earth Orbit

Inclination

74.0

Latest

Satellite identification and parameters

Extended collection of information and parameters for COSMOS 1716.

Object identification

Identified? True

Debris? False

Object name: COSMOS 1716

International designator: 1986-002A

Object number (NORAD): 16449

Object ID (CCSDS): 16449

Country: COMMONWEALTH OF INDEPENDENT STATES (CIS)

Current information (Y/N): Y

RCS size: MEDIUM

Orbital parameters

Period: 115.485 minutes

Inclination: 73.9897 deg

SMA: 7855.559 km

Apoapsis: 1490.938 km

Periapsis: 1463.911 km

RAAN: 278.6225 deg

Eccentricy: 0.00172025

Argument of periapsis: 34.1867 deg

Mean anomaly: 38.149 deg

Mean motion: 12.46915758 rev/day

Mean motion (dot): -0.00000018 rev/day2

B* drag term: -0.00001762317 1/REarth

Two-line elements (TLE)

Creation date: Dec. 19, 2025, 2:08 a.m.

Reference frame: TEME

Reference center: EARTH

Epoch: Dec. 18, 2025, 10:58 p.m. UTC

TLE line 0: 0 COSMOS 1716

TLE line 1: 1 16449U 86002A 25352.95699406 -.00000018 00000-0 -17623-4 0 9999

TLE line 2: 2 16449 73.9897 278.6225 0017203 34.1867 38.1490 12.46915758818160

Live tracking on map

Real-time ground track for satellite COSMOS 1716.

In-orbit conjunctions

There are no conjunctions computed for COSMOS 1716, at the moment. Check back to stay up to date, as we update our databases every day.

Go to all conjunctions

Associated space launch

Military communications satellites

COSMOS 1716 was lifted into orbit during the mission ‘Kosmos-3M | Strela-1M 297-304’, on board a Kosmos-3M space rocket.

The launch took place on Jan. 9, 1986, 2:48 a.m. from 132/2.

For more information about the launch, click the button.

Launch to space Kosmos-3M | Strela-1M 297-304
Kosmos-3M | Strela-1M 297-304

Agency: N/A

Status: Launch Successful

Launch date: Jan. 9, 1986, 2:48 a.m. UTC

Rocket: Kosmos-3M

Launch pad: 132/2

Location: Plesetsk Cosmodrome, Russian Federation

...

Latest news about this satellite

There are no fresh news available about this satellite. Check back as we update our databases every day.


Newsletter sign-up

Weekly statistics, charts and insights to help you stay on top of the space industry.